Time,TemperatureF,DewpointF,PressureIn,WindDirection,WindDirectionDegrees,WindSpeedMPH,WindSpeedGustMPH,Humidity,HourlyPrecipIn,Conditions,Clouds,dailyrainin,SoftwareType,DateUTC
2013-05-18 00:02:00,47.0,47.0,-100.00,SSW,195,7.0,9.0,99,-99.99,,,-99.99,,2013-05-18 06:02:00,
2013-05-18 00:11:00,47.0,47.0,-100.00,SSW,200,6.0,7.0,99,-99.99,,,-99.99,,2013-05-18 06:11:00,
2013-05-18 00:21:00,47.0,47.0,-100.00,SW,215,4.0,6.0,99,-99.99,,,-99.99,,2013-05-18 06:21:00,
2013-05-18 00:31:00,47.0,47.0,-100.00,NNE,25,2.0,3.0,99,-99.99,,,-99.99,,2013-05-18 06:31:00,
2013-05-18 00:41:00,47.0,47.0,-100.00,NNW,345,4.0,6.0,99,-99.99,,,-99.99,,2013-05-18 06:41:00,
2013-05-18 00:51:00,47.0,47.0,-100.00,WNW,290,2.0,4.0,99,-99.99,,,-99.99,,2013-05-18 06:51:00,
2013-05-18 01:01:00,46.0,46.0,-100.00,SSE,160,0.0,3.0,99,-99.99,,,-99.99,,2013-05-18 07:01:00,
2013-05-18 01:11:00,46.0,46.0,-100.00,SSE,160,2.0,2.0,99,-99.99,,,-99.99,,2013-05-18 07:11:00,
2013-05-18 01:21:00,46.0,46.0,-100.00,South,180,2.0,2.0,99,-99.99,,,-99.99,,2013-05-18 07:21:00,
2013-05-18 01:31:00,45.0,45.0,-100.00,SSW,205,3.0,4.0,99,-99.99,,,-99.99,,2013-05-18 07:31:00,
2013-05-18 01:42:00,47.0,47.0,-100.00,SSW,200,3.0,4.0,99,-99.99,,,-99.99,,2013-05-18 07:42:00,
2013-05-18 01:52:00,47.0,47.0,-100.00,SSW,205,4.0,4.0,99,-99.99,,,-99.99,,2013-05-18 07:52:00,
2013-05-18 02:01:00,48.0,48.0,-100.00,SSW,195,3.0,4.0,99,-99.99,,,-99.99,,2013-05-18 08:01:00,
2013-05-18 02:11:00,48.0,48.0,-100.00,SSW,210,3.0,4.0,99,-99.99,,,-99.99,,2013-05-18 08:11:00,
2013-05-18 02:21:00,48.0,48.0,-100.00,North,5,1.0,2.0,99,-99.99,,,-99.99,,2013-05-18 08:21:00,
2013-05-18 02:32:00,48.0,48.0,-100.00,WNW,300,3.0,4.0,99,-99.99,,,-99.99,,2013-05-18 08:32:00,
2013-05-18 02:42:00,48.0,48.0,-100.00,WNW,295,6.0,6.0,99,-99.99,,,-99.99,,2013-05-18 08:42:00,
2013-05-18 02:52:00,47.0,47.0,-100.00,NE,40,4.0,7.0,99,-99.99,,,-99.99,,2013-05-18 08:52:00,
2013-05-18 03:02:00,47.0,47.0,-100.00,WNW,285,6.0,7.0,99,-99.99,,,-99.99,,2013-05-18 09:02:00,
2013-05-18 03:11:00,47.0,47.0,-100.00,WNW,290,6.0,7.0,99,-99.99,,,-99.99,,2013-05-18 09:11:00,
2013-05-18 03:21:00,47.0,47.0,-100.00,NW,315,5.0,6.0,99,-99.99,,,-99.99,,2013-05-18 09:21:00,
2013-05-18 03:32:00,47.0,47.0,-100.00,North,5,12.0,13.0,99,-99.99,,,-99.99,,2013-05-18 09:32:00,
2013-05-18 03:43:00,47.0,47.0,-100.00,North,355,16.0,17.0,99,-99.99,,,-99.99,,2013-05-18 09:43:00,
2013-05-18 03:52:00,47.0,47.0,-100.00,NNE,30,5.0,11.0,99,-99.99,,,-99.99,,2013-05-18 09:52:00,
2013-05-18 04:02:00,47.0,47.0,-100.00,NNW,345,9.0,10.0,99,-99.99,,,-99.99,,2013-05-18 10:02:00,
2013-05-18 04:12:00,46.0,46.0,-100.00,NNW,330,7.0,10.0,99,-99.99,,,-99.99,,2013-05-18 10:12:00,
2013-05-18 04:22:00,46.0,46.0,-100.00,WNW,295,4.0,7.0,99,-99.99,,,-99.99,,2013-05-18 10:22:00,
2013-05-18 04:33:00,46.0,46.0,-100.00,West,280,3.0,6.0,99,-99.99,,,-99.99,,2013-05-18 10:33:00,
2013-05-18 04:42:00,46.0,46.0,-100.00,NW,305,4.0,6.0,99,-99.99,,,-99.99,,2013-05-18 10:42:00,
2013-05-18 04:52:00,46.0,46.0,-100.00,NNW,345,3.0,6.0,99,-99.99,,,-99.99,,2013-05-18 10:52:00,
2013-05-18 05:02:00,46.0,46.0,-100.00,North,5,3.0,4.0,99,-99.99,,,-99.99,,2013-05-18 11:02:00,
2013-05-18 05:12:00,46.0,46.0,-100.00,North,0,6.0,7.0,99,-99.99,,,-99.99,,2013-05-18 11:12:00,
2013-05-18 05:22:00,46.0,46.0,-100.00,North,0,5.0,7.0,99,-99.99,,,-99.99,,2013-05-18 11:22:00,
2013-05-18 05:33:00,46.0,46.0,-100.00,North,5,5.0,6.0,99,-99.99,,,-99.99,,2013-05-18 11:33:00,
2013-05-18 05:42:00,46.0,46.0,-100.00,North,10,2.0,4.0,99,-99.99,,,-99.99,,2013-05-18 11:42:00,
2013-05-18 05:52:00,46.0,46.0,-100.00,NNW,345,3.0,4.0,99,-99.99,,,-99.99,,2013-05-18 11:52:00,
2013-05-18 06:01:00,46.0,46.0,-100.00,NW,310,6.0,7.0,99,-99.99,,,-99.99,,2013-05-18 12:01:00,
2013-05-18 06:11:00,46.0,46.0,-100.00,NW,310,7.0,10.0,99,-99.99,,,-99.99,,2013-05-18 12:11:00,
2013-05-18 06:22:00,45.0,45.0,-100.00,WNW,300,10.0,12.0,99,-99.99,,,-99.99,,2013-05-18 12:22:00,
2013-05-18 06:33:00,44.0,44.0,-100.00,WNW,285,9.0,14.0,99,-99.99,,,-99.99,,2013-05-18 12:33:00,
2013-05-18 06:41:00,44.0,44.0,-100.00,West,275,13.0,17.0,99,-99.99,,,-99.99,,2013-05-18 12:41:00,
2013-05-18 06:51:00,44.0,44.0,-100.00,WNW,300,12.0,17.0,99,-99.99,,,-99.99,,2013-05-18 12:51:00,
2013-05-18 07:01:00,44.0,44.0,-100.00,NW,320,14.0,18.0,99,-99.99,,,-99.99,,2013-05-18 13:01:00,
2013-05-18 07:11:00,44.0,44.0,-100.00,NW,325,14.0,18.0,99,-99.99,,,-99.99,,2013-05-18 13:11:00,
2013-05-18 07:21:00,44.0,44.0,-100.00,NW,320,14.0,18.0,99,-99.99,,,-99.99,,2013-05-18 13:21:00,
2013-05-18 07:32:00,44.0,44.0,-100.00,NW,315,17.0,21.0,99,-99.99,,,-99.99,,2013-05-18 13:32:00,
2013-05-18 07:43:00,43.0,43.0,-100.00,WNW,300,15.0,26.0,99,-99.99,,,-99.99,,2013-05-18 13:43:00,
2013-05-18 07:52:00,43.0,43.0,-100.00,West,280,14.0,19.0,99,-99.99,,,-99.99,,2013-05-18 13:52:00,
2013-05-18 08:03:00,43.0,43.0,-100.00,WNW,285,14.0,20.0,99,-99.99,,,-99.99,,2013-05-18 14:03:00,
2013-05-18 08:12:00,43.0,43.0,-100.00,WNW,295,12.0,18.0,99,-99.99,,,-99.99,,2013-05-18 14:12:00,
2013-05-18 08:22:00,42.0,42.0,-100.00,NW,305,17.0,20.0,99,-99.99,,,-99.99,,2013-05-18 14:22:00,
2013-05-18 08:32:00,42.0,42.0,-100.00,WNW,300,16.0,20.0,99,-99.99,,,-99.99,,2013-05-18 14:32:00,
2013-05-18 08:42:00,42.0,42.0,-100.00,WNW,300,16.0,20.0,99,-99.99,,,-99.99,,2013-05-18 14:42:00,
2013-05-18 08:53:00,41.0,41.0,-100.00,WNW,285,16.0,21.0,99,-99.99,,,-99.99,,2013-05-18 14:53:00,
2013-05-18 09:03:00,41.0,41.0,-100.00,WNW,290,14.0,17.0,99,-99.99,,,-99.99,,2013-05-18 15:03:00,
2013-05-18 09:12:00,42.0,42.0,-100.00,WNW,300,12.0,17.0,99,-99.99,,,-99.99,,2013-05-18 15:12:00,
2013-05-18 09:23:00,42.0,42.0,-100.00,NW,315,13.0,16.0,99,-99.99,,,-99.99,,2013-05-18 15:23:00,
2013-05-18 09:33:00,42.0,42.0,-100.00,NW,315,12.0,17.0,99,-99.99,,,-99.99,,2013-05-18 15:33:00,
2013-05-18 09:43:00,42.0,42.0,-100.00,NW,310,16.0,18.0,99,-99.99,,,-99.99,,2013-05-18 15:43:00,
2013-05-18 09:53:00,43.0,43.0,-100.00,NW,310,15.0,18.0,99,-99.99,,,-99.99,,2013-05-18 15:53:00,
2013-05-18 10:02:00,43.0,43.0,-100.00,NW,310,12.0,16.0,99,-99.99,,,-99.99,,2013-05-18 16:02:00,
2013-05-18 10:12:00,43.0,43.0,-100.00,NW,315,11.0,16.0,99,-99.99,,,-99.99,,2013-05-18 16:12:00,
2013-05-18 10:22:00,43.0,43.0,-100.00,NW,315,12.0,16.0,99,-99.99,,,-99.99,,2013-05-18 16:22:00,
2013-05-18 10:32:00,44.0,44.0,-100.00,NW,315,10.0,14.0,98,-99.99,,,-99.99,,2013-05-18 16:32:00,
2013-05-18 10:41:00,44.0,43.0,-100.00,NNW,335,10.0,15.0,94,-99.99,,,-99.99,,2013-05-18 16:41:00,
2013-05-18 10:52:00,46.0,43.0,-100.00,NNW,335,13.0,16.0,89,-99.99,,,-99.99,,2013-05-18 16:52:00,
2013-05-18 11:02:00,47.0,43.0,-100.00,NW,315,14.0,17.0,85,-99.99,,,-99.99,,2013-05-18 17:02:00,
2013-05-18 11:12:00,47.0,42.0,-100.00,NW,315,14.0,18.0,83,-99.99,,,-99.99,,2013-05-18 17:12:00,
2013-05-18 11:22:00,48.0,41.0,-100.00,NNW,330,17.0,21.0,77,-99.99,,,-99.99,,2013-05-18 17:22:00,
2013-05-18 11:32:00,48.0,41.0,-100.00,NNW,340,18.0,22.0,75,-99.99,,,-99.99,,2013-05-18 17:32:00,
2013-05-18 11:42:00,47.0,40.0,-100.00,NNW,345,16.0,21.0,75,-99.99,,,-99.99,,2013-05-18 17:42:00,
2013-05-18 11:51:00,48.0,41.0,-100.00,North,350,15.0,23.0,75,-99.99,,,-99.99,,2013-05-18 17:51:00,
2013-05-18 12:01:00,48.0,40.0,-100.00,North,0,17.0,21.0,72,-99.99,,,-99.99,,2013-05-18 18:01:00,
2013-05-18 12:12:00,48.0,39.0,-100.00,North,0,16.0,21.0,70,-99.99,,,-99.99,,2013-05-18 18:12:00,
2013-05-18 12:21:00,50.0,40.0,-100.00,North,355,17.0,24.0,67,-99.99,,,-99.99,,2013-05-18 18:21:00,
2013-05-18 12:31:00,49.0,39.0,-100.00,North,0,13.0,23.0,67,-99.99,,,-99.99,,2013-05-18 18:31:00,
2013-05-18 12:41:00,50.0,39.0,-100.00,North,0,14.0,22.0,67,-99.99,,,-99.99,,2013-05-18 18:41:00,
2013-05-18 12:51:00,50.0,39.0,-100.00,North,0,17.0,22.0,65,-99.99,,,-99.99,,2013-05-18 18:51:00,
2013-05-18 13:01:00,50.0,40.0,-100.00,North,0,17.0,24.0,66,-99.99,,,-99.99,,2013-05-18 19:01:00,
2013-05-18 13:11:00,51.0,40.0,-100.00,NNW,345,19.0,23.0,67,-99.99,,,-99.99,,2013-05-18 19:11:00,
2013-05-18 13:21:00,50.0,40.0,-100.00,North,0,21.0,29.0,68,-99.99,,,-99.99,,2013-05-18 19:21:00,
2013-05-18 13:31:00,49.0,39.0,-100.00,North,0,24.0,31.0,67,-99.99,,,-99.99,,2013-05-18 19:31:00,
2013-05-18 13:42:00,49.0,39.0,-100.00,North,355,22.0,29.0,66,-99.99,,,-99.99,,2013-05-18 19:42:00,
2013-05-18 13:52:00,49.0,40.0,-100.00,North,0,20.0,27.0,70,-99.99,,,-99.99,,2013-05-18 19:52:00,
2013-05-18 14:01:00,48.0,39.0,-100.00,North,0,20.0,28.0,70,-99.99,,,-99.99,,2013-05-18 20:01:00,
2013-05-18 14:11:00,48.0,40.0,-100.00,North,5,19.0,26.0,71,-99.99,,,-99.99,,2013-05-18 20:11:00,
2013-05-18 14:21:00,48.0,40.0,-100.00,North,0,12.0,25.0,71,-99.99,,,-99.99,,2013-05-18 20:21:00,
2013-05-18 14:32:00,48.0,39.0,-100.00,North,0,17.0,21.0,70,-99.99,,,-99.99,,2013-05-18 20:32:00,
2013-05-18 14:42:00,48.0,39.0,-100.00,NNW,335,11.0,19.0,70,-99.99,,,-99.99,,2013-05-18 20:42:00,
2013-05-18 14:52:00,48.0,40.0,-100.00,North,350,11.0,19.0,72,-99.99,,,-99.99,,2013-05-18 20:52:00,
2013-05-18 15:01:00,48.0,39.0,-100.00,North,0,13.0,17.0,72,-99.99,,,-99.99,,2013-05-18 21:01:00,
2013-05-18 15:11:00,47.0,40.0,-100.00,North,0,14.0,17.0,74,-99.99,,,-99.99,,2013-05-18 21:11:00,
2013-05-18 15:21:00,47.0,40.0,-100.00,North,0,11.0,15.0,75,-99.99,,,-99.99,,2013-05-18 21:21:00,
2013-05-18 15:32:00,47.0,41.0,-100.00,North,0,9.0,14.0,79,-99.99,,,-99.99,,2013-05-18 21:32:00,
2013-05-18 15:43:00,47.0,42.0,-100.00,North,5,12.0,15.0,82,-99.99,,,-99.99,,2013-05-18 21:43:00,
2013-05-18 15:53:00,47.0,42.0,-100.00,North,5,7.0,15.0,82,-99.99,,,-99.99,,2013-05-18 21:53:00,
2013-05-18 16:03:00,47.0,43.0,-100.00,North,5,9.0,11.0,85,-99.99,,,-99.99,,2013-05-18 22:03:00,
2013-05-18 16:12:00,47.0,44.0,-100.00,North,350,10.0,12.0,87,-99.99,,,-99.99,,2013-05-18 22:12:00,
2013-05-18 16:23:00,47.0,43.0,-100.00,North,350,11.0,14.0,85,-99.99,,,-99.99,,2013-05-18 22:23:00,
2013-05-18 16:32:00,47.0,42.0,-100.00,North,350,10.0,16.0,83,-99.99,,,-99.99,,2013-05-18 22:32:00,
2013-05-18 16:42:00,47.0,42.0,-100.00,North,0,9.0,13.0,83,-99.99,,,-99.99,,2013-05-18 22:42:00,
2013-05-18 16:52:00,47.0,42.0,-100.00,NNW,340,9.0,13.0,81,-99.99,,,-99.99,,2013-05-18 22:52:00,
2013-05-18 17:01:00,48.0,43.0,-100.00,North,350,11.0,13.0,82,-99.99,,,-99.99,,2013-05-18 23:01:00,
2013-05-18 17:11:00,48.0,43.0,-100.00,North,350,9.0,13.0,83,-99.99,,,-99.99,,2013-05-18 23:11:00,
2013-05-18 17:21:00,48.0,43.0,-100.00,NNW,340,11.0,12.0,82,-99.99,,,-99.99,,2013-05-18 23:21:00,
2013-05-18 17:32:00,48.0,43.0,-100.00,NNW,335,11.0,16.0,82,-99.99,,,-99.99,,2013-05-18 23:32:00,
2013-05-18 17:41:00,49.0,43.0,-100.00,NNW,335,14.0,17.0,79,-99.99,,,-99.99,,2013-05-18 23:41:00,
2013-05-18 17:52:00,49.0,42.0,-100.00,NNW,345,17.0,20.0,76,-99.99,,,-99.99,,2013-05-18 23:52:00,
2013-05-18 18:01:00,49.0,41.0,-100.00,NNW,340,16.0,21.0,75,-99.99,,,-99.99,,2013-05-19 00:01:00,
2013-05-18 18:11:00,49.0,41.0,-100.00,NNW,340,16.0,21.0,75,-99.99,,,-99.99,,2013-05-19 00:11:00,
2013-05-18 18:21:00,49.0,42.0,-100.00,NNW,335,16.0,21.0,77,-99.99,,,-99.99,,2013-05-19 00:21:00,
2013-05-18 18:31:00,49.0,43.0,-100.00,NNW,335,16.0,20.0,78,-99.99,,,-99.99,,2013-05-19 00:31:00,
2013-05-18 18:41:00,49.0,43.0,-100.00,NNW,330,14.0,19.0,79,-99.99,,,-99.99,,2013-05-19 00:41:00,
2013-05-18 18:51:00,49.0,42.0,-100.00,NNW,330,16.0,20.0,78,-99.99,,,-99.99,,2013-05-19 00:51:00,
2013-05-18 19:01:00,49.0,42.0,-100.00,NNW,340,17.0,21.0,77,-99.99,,,-99.99,,2013-05-19 01:01:00,
2013-05-18 19:11:00,49.0,42.0,-100.00,NNW,345,17.0,21.0,77,-99.99,,,-99.99,,2013-05-19 01:11:00,
2013-05-18 19:21:00,48.0,43.0,-100.00,NNW,345,18.0,21.0,81,-99.99,,,-99.99,,2013-05-19 01:21:00,
2013-05-18 19:32:00,48.0,44.0,-100.00,NNW,345,17.0,21.0,85,-99.99,,,-99.99,,2013-05-19 01:32:00,
2013-05-18 19:41:00,48.0,44.0,-100.00,NNW,345,15.0,18.0,85,-99.99,,,-99.99,,2013-05-19 01:41:00,
2013-05-18 19:52:00,48.0,43.0,-100.00,NNW,340,12.0,17.0,83,-99.99,,,-99.99,,2013-05-19 01:52:00,
2013-05-18 20:01:00,47.0,43.0,-100.00,North,350,14.0,16.0,83,-99.99,,,-99.99,,2013-05-19 02:01:00,
2013-05-18 20:11:00,47.0,43.0,-100.00,North,350,13.0,17.0,85,-99.99,,,-99.99,,2013-05-19 02:11:00,
2013-05-18 20:21:00,47.0,42.0,-100.00,North,350,17.0,22.0,82,-99.99,,,-99.99,,2013-05-19 02:21:00,
2013-05-18 20:31:00,47.0,43.0,-100.00,North,350,14.0,17.0,87,-99.99,,,-99.99,,2013-05-19 02:31:00,
2013-05-18 20:42:00,46.0,43.0,-100.00,North,355,14.0,17.0,89,-99.99,,,-99.99,,2013-05-19 02:42:00,
2013-05-18 20:52:00,46.0,44.0,-100.00,North,355,17.0,21.0,93,-99.99,,,-99.99,,2013-05-19 02:52:00,
2013-05-18 21:01:00,46.0,44.0,-100.00,North,355,18.0,22.0,94,-99.99,,,-99.99,,2013-05-19 03:01:00,
2013-05-18 21:11:00,46.0,44.0,-100.00,North,350,16.0,20.0,94,-99.99,,,-99.99,,2013-05-19 03:11:00,
2013-05-18 21:21:00,45.0,44.0,-100.00,NNW,335,16.0,19.0,95,-99.99,,,-99.99,,2013-05-19 03:21:00,
2013-05-18 21:32:00,45.0,44.0,-100.00,NNW,330,15.0,18.0,96,-99.99,,,-99.99,,2013-05-19 03:32:00,
2013-05-18 21:42:00,45.0,44.0,-100.00,NNW,335,14.0,17.0,97,-99.99,,,-99.99,,2013-05-19 03:42:00,
2013-05-18 21:53:00,45.0,44.0,-100.00,NW,320,16.0,21.0,95,-99.99,,,-99.99,,2013-05-19 03:53:00,
2013-05-18 22:02:00,44.0,43.0,-100.00,NNW,330,10.0,18.0,95,-99.99,,,-99.99,,2013-05-19 04:02:00,
2013-05-18 22:12:00,44.0,43.0,-100.00,NNW,345,7.0,10.0,96,-99.99,,,-99.99,,2013-05-19 04:12:00,
2013-05-18 22:23:00,45.0,44.0,-100.00,NW,320,9.0,14.0,95,-99.99,,,-99.99,,2013-05-19 04:23:00,
2013-05-18 22:33:00,45.0,43.0,-100.00,NW,320,7.0,11.0,95,-99.99,,,-99.99,,2013-05-19 04:33:00,
2013-05-18 22:41:00,45.0,44.0,-100.00,North,355,11.0,12.0,94,-99.99,,,-99.99,,2013-05-19 04:41:00,
2013-05-18 22:52:00,45.0,44.0,-100.00,North,0,13.0,16.0,95,-99.99,,,-99.99,,2013-05-19 04:52:00,
2013-05-18 23:02:00,45.0,44.0,-100.00,North,0,14.0,17.0,95,-99.99,,,-99.99,,2013-05-19 05:02:00,
2013-05-18 23:11:00,45.0,44.0,-100.00,North,0,14.0,17.0,97,-99.99,,,-99.99,,2013-05-19 05:11:00,
2013-05-18 23:21:00,45.0,45.0,-100.00,North,10,13.0,15.0,99,-99.99,,,-99.99,,2013-05-19 05:21:00,
2013-05-18 23:32:00,45.0,45.0,-100.00,North,5,15.0,19.0,99,-99.99,,,-99.99,,2013-05-19 05:32:00,
2013-05-18 23:42:00,45.0,45.0,-100.00,North,0,16.0,22.0,99,-99.99,,,-99.99,,2013-05-19 05:42:00,
2013-05-18 23:51:00,45.0,45.0,-100.00,North,0,14.0,21.0,99,-99.99,,,-99.99,,2013-05-19 05:51:00,